Tracking 26922 objects as of 29-Jan-2023
HD Live streaming from Space Station
objects crossing your sky now

SL-19 DEB

Track SL-19 DEB now!
10-day predictions


NORAD ID: 24679
Int'l Code: 1994-085Y
Perigee: 1,850.0 km
Apogee: 2,162.5 km
Inclination: 65.0 °
Period: 127.2 minutes
Semi major axis: 8377 km
RCS: 0.047 m2 (small)
Launch date: December 26, 1994
Source: Commonwealth of Independent States (former USSR) (CIS)
Launch site: TYURATAM MISSILE AND SPACE COMPLEX (TTMTR)

Note: This is SATELLITE DEBRIS
Your satellite tracking list
Your tracking list is empty




NASA's NSSDC Master Catalog

Two Line Element Set (TLE):
1 24679U 94085Y   23028.92958714 -.00000015  00000-0  72093-3 0  9995
2 24679  64.9848  84.3382 0186508 352.2688 184.0172 11.32266976326332
Source of the keplerian elements: AFSPC